Home > Weather > Ashgabat > Past weeks

Flag for Turkmenistan Weather for the Past 2 Weeks in Ashgabat, Turkmenistan

Now
66 °F

Mostly cloudy.


Feels Like: 66 °F
Forecast: 65 / 74 °F
Wind: 13 mph from Northwest

Location: Ashgabat

Current Time: May 1, 2016 at 4:36:45 AM

Latest Report: May 1, 2016 at 3:00 AM


Visibility: N/A

Pressure: 29.89 "Hg

Humidity: 73%

Dew Point: 57 °F

Location of AshgabatLocation

Historic Weather in Ashgabat — Graph

°F

Ashgabat Temperature Yesterday

Maximum temperature yesterday: 81 °F (at 4:00 PM)
Minimum temperature yesterday: 68 °F (at 7:00 AM)
Average temperature yesterday: 73 °F

High & Low Weather Summary for the Past Weeks

 TemperatureHumidityPressure
High99 °F (Apr 27, 1:00 PM)94% (Apr 16, 5:00 AM)30.30 "Hg (Apr 16, 5:00 AM)
Low50 °F (Apr 19, 5:00 AM)11% (Apr 27, 5:00 PM)29.74 "Hg (Apr 16, 5:00 AM)
Average70 °F51%29.93 "Hg
* Reported Apr 16 2:00 AM — May 1 2:00 AM, Ashgabat, Weather by CustomWeather, © 2016

Note: Actual official high and low records may vary slightly from our data, if they occured in-between our weather recording intervals... More about our weather records

Advertising

Ashgabat Weather History for the Previous 24 Hours

Scroll right to see more
 ConditionsComfort  
Time TempWeatherWind HumidityBarometerVisibility
2:00 AM
Sun, May 1
66 °FOvercast.8 mph73%29.86 "HgN/A
1:00 AM68 °FMostly cloudy.9 mph73%29.86 "HgN/A
12:00 AM68 °FOvercast.12 mph73%29.89 "HgN/A
11:00 PM
Sat, Apr 30
68 °FOvercast.22 mph69%29.92 "HgN/A
10:00 PM72 °FOvercast.18 mph61%29.92 "HgN/A
9:00 PM72 °FMostly cloudy.13 mph61%29.92 "HgN/A
8:00 PM72 °FMostly cloudy.21 mph61%29.86 "HgN/A
7:00 PM73 °FThunderstorms. Mostly cloudy.13 mph57%29.86 "HgN/A
6:00 PM73 °FThunderstorms. Mostly cloudy.20 mph61%29.83 "Hg6 mi
5:00 PM79 °FMostly cloudy.18 mph45%29.83 "Hg6 mi
4:00 PM81 °FMostly cloudy.12 mph39%29.80 "HgN/A
3:00 PM79 °FBroken clouds.14 mph45%29.83 "Hg6 mi
2:00 PM79 °FPartly sunny.13 mph45%29.83 "HgN/A
12:00 PM77 °FBroken clouds.10 mph47%29.86 "HgN/A
11:00 AM75 °FPartly sunny.9 mph50%29.86 "HgN/A
10:00 AM75 °FScattered clouds.10 mph54%29.89 "HgN/A
9:00 AM72 °FScattered clouds.10 mph61%29.89 "HgN/A
8:00 AM70 °FScattered clouds.5 mph64%29.86 "HgN/A
7:00 AM68 °FPassing clouds.8 mph60%29.86 "HgN/A
6:00 AM70 °FPassing clouds.8 mph60%29.86 "HgN/A
5:00 AM70 °FPassing clouds.2 mph60%29.83 "HgN/A
4:00 AM73 °FPartly cloudy.5 mph53%29.83 "HgN/A
Weather by CustomWeather, © 2016

See weather overviewHow to use our weather pages